Logansport, IN

6:36 AM EST on February 08, 2016 (GMT -0500)
Logansport Municipal

Weather History for KGGP - April, 2013

Change the Weather History Date:

Sunday, April 28, 2013

  Actual Average Record
Temperature  
Mean Temperature 55 °F -  
Max Temperature 59 °F 65 °F 60 °F (2015)
Min Temperature 51 °F 42 °F 33 °F (2015)
Degree Days  
Heating Degree Days 10    
Growing Degree Days 5 (Base 50)    
Moisture  
Dew Point 52 °F    
Average Humidity 92    
Maximum Humidity 100    
Minimum Humidity 82    
Precipitation  
Precipitation 0.46 in - - ()
Sea Level Pressure  
Sea Level Pressure 29.89 in    
Wind  
Wind Speed 5 mph (ENE)    
Max Wind Speed 9 mph    
Max Gust Speed -    
Visibility 7 miles    
Events Rain    
Averages and records for this station are not official NWS values.
T = Trace of Precipitation, MM = Missing Value Source: NWS Daily Summary

Daily Weather History Graph

Daily Weather History Graph

Search for Another Location

Airport or City:

Trip Planner

Search our weather history database for the weather conditions in past years. The results will help you decide how hot, cold, wet, or windy it might be!

Date:

Astronomy

Apr. 28, 2013 Rise Set
Actual Time 6:47 AM EDT 8:38 PM EDT
Civil Twilight 6:18 AM EDT 9:08 PM EDT
Nautical Twilight 5:42 AM EDT 9:44 PM EDT
Astronomical Twilight 5:04 AM EDT 10:22 PM EDT
Moon No Moon Rise 9:03 AM EDT (4/28)
Length of Visible Light 14h 50m
Length of Day
13h 51m
Waning Gibbous, 89% of the Moon is Illuminated
Apr 28
Waning Gibbous
May 2
Last Quarter
May 9
New
May 18
First Quarter
May 25
Full

Hourly Weather History & Observations

Time (EDT) Temp. Dew Point Humidity Pressure Visibility Wind Dir Wind Speed Gust Speed Precip Events Conditions
12:15 AM 53.6 °F 50.0 °F 88% 30.03 in 10.0 mi ESE 5.8 mph - N/A   Overcast
12:35 AM 53.6 °F 50.0 °F 88% 30.03 in 10.0 mi East 4.6 mph - N/A   Overcast
12:55 AM 51.8 °F 50.0 °F 94% 30.02 in 10.0 mi East 5.8 mph - N/A   Overcast
1:15 AM 51.8 °F 50.0 °F 94% 30.01 in 10.0 mi East 5.8 mph - N/A Rain Rain
1:35 AM 51.8 °F 50.0 °F 94% 29.99 in 10.0 mi East 5.8 mph - N/A   Overcast
1:55 AM 51.8 °F 50.0 °F 94% 29.98 in 10.0 mi East 4.6 mph - N/A   Overcast
2:15 AM 51.8 °F 50.0 °F 94% 29.98 in 10.0 mi East 4.6 mph - N/A Rain Light Rain
2:35 AM 51.8 °F 50.0 °F 94% 29.96 in 10.0 mi East 6.9 mph - N/A Rain Rain
2:55 AM 51.8 °F 50.0 °F 94% 29.96 in 7.0 mi East 5.8 mph - N/A Rain Light Rain
3:15 AM 51.8 °F 50.0 °F 94% 29.95 in 7.0 mi East 4.6 mph - 0.01 in Rain Light Rain
3:35 AM 51.8 °F 50.0 °F 94% 29.94 in 7.0 mi East 5.8 mph - 0.05 in Rain Rain
3:55 AM 51.8 °F 50.0 °F 94% 29.93 in 5.0 mi ENE 5.8 mph - 0.12 in Rain Rain
4:15 AM 51.8 °F 50.0 °F 94% 29.92 in 5.0 mi ENE 9.2 mph - 0.02 in Rain Rain
4:35 AM 51.8 °F 50.0 °F 94% 29.92 in 4.0 mi ENE 6.9 mph - 0.10 in Rain Heavy Rain
4:55 AM 51.8 °F 50.0 °F 94% 29.92 in 5.0 mi ENE 5.8 mph - 0.13 in Rain Light Rain
5:15 AM 51.8 °F 50.0 °F 94% 29.91 in 5.0 mi ENE 6.9 mph - N/A   Drizzle
5:35 AM 51.8 °F 50.0 °F 94% 29.90 in 5.0 mi East 8.1 mph - N/A   Overcast
5:55 AM 51.8 °F 50.0 °F 94% 29.90 in 5.0 mi East 6.9 mph - 0.01 in Rain Rain
6:15 AM 51.8 °F 50.0 °F 94% 29.90 in 5.0 mi East 6.9 mph - 0.02 in Rain Light Rain
6:35 AM 51.8 °F 50.0 °F 94% 29.90 in 5.0 mi East 6.9 mph - 0.03 in Rain Light Rain
6:55 AM 51.8 °F 50.0 °F 94% 29.90 in 5.0 mi East 6.9 mph - 0.04 in   Drizzle
7:15 AM 51.8 °F 50.0 °F 94% 29.90 in 4.0 mi East 5.8 mph - N/A   Drizzle
7:35 AM 51.8 °F 51.8 °F 100% 29.90 in 2.5 mi East 5.8 mph - 0.03 in Rain Rain
7:55 AM 51.8 °F 51.8 °F 100% 29.89 in 2.5 mi East 6.9 mph - 0.06 in Rain Rain
8:15 AM 51.8 °F 51.8 °F 100% 29.89 in 4.0 mi East 5.8 mph - N/A   Overcast
8:35 AM 51.8 °F 51.8 °F 100% 29.89 in 4.0 mi East 5.8 mph - N/A   Overcast
8:55 AM 51.8 °F 51.8 °F 100% 29.89 in 5.0 mi East 6.9 mph - N/A   Overcast
9:15 AM 53.6 °F 51.8 °F 94% 29.89 in 7.0 mi East 8.1 mph - N/A   Overcast
9:35 AM 51.8 °F 51.8 °F 100% 29.88 in 4.0 mi East 3.5 mph - 0.01 in Rain Rain
9:55 AM 53.6 °F 51.8 °F 94% 29.88 in 3.0 mi ENE 3.5 mph - 0.06 in Rain Light Rain
10:15 AM 53.6 °F 51.8 °F 94% 29.88 in 5.0 mi ENE 4.6 mph - N/A Rain Light Rain
10:35 AM 53.6 °F 51.8 °F 94% 29.87 in 5.0 mi ENE 3.5 mph - N/A Rain Light Rain
10:55 AM 53.6 °F 51.8 °F 94% 29.87 in 5.0 mi East 4.6 mph - 0.01 in   Drizzle
11:15 AM 53.6 °F 53.6 °F 100% 29.87 in 5.0 mi East 3.5 mph - N/A Rain Rain
11:35 AM 53.6 °F 53.6 °F 100% 29.87 in 5.0 mi Calm Calm - 0.01 in Rain Light Rain
11:55 AM 53.6 °F 53.6 °F 100% 29.87 in 5.0 mi East 3.5 mph - 0.02 in Rain Rain
12:15 PM 53.6 °F 53.6 °F 100% 29.87 in 5.0 mi ESE 4.6 mph - N/A   Overcast
12:35 PM 55.4 °F 53.6 °F 94% 29.87 in 7.0 mi Calm Calm - N/A   Overcast
12:55 PM 55.4 °F 53.6 °F 94% 29.87 in 10.0 mi Calm Calm - N/A Rain Light Rain
1:15 PM 55.4 °F 53.6 °F 94% 29.86 in 7.0 mi Calm Calm - N/A Rain Light Rain
1:35 PM 55.4 °F 53.6 °F 94% 29.86 in 7.0 mi Calm Calm - N/A Rain Light Rain
1:55 PM 55.4 °F 53.6 °F 94% 29.86 in 7.0 mi WSW 3.5 mph - 0.01 in   Drizzle
2:15 PM 55.4 °F 53.6 °F 94% 29.86 in 10.0 mi West 4.6 mph - N/A   Overcast
2:35 PM 57.2 °F 53.6 °F 88% 29.85 in 10.0 mi Calm Calm - N/A   Overcast
2:55 PM 59.0 °F 53.6 °F 82% 29.86 in 10.0 mi Calm Calm - N/A   Overcast
3:15 PM 57.2 °F 53.6 °F 88% 29.86 in 10.0 mi NW 4.6 mph - N/A   Overcast
3:35 PM 57.2 °F 53.6 °F 88% 29.85 in 10.0 mi NW 5.8 mph - N/A   Overcast
3:55 PM 57.2 °F 53.6 °F 88% 29.85 in 10.0 mi NW 4.6 mph - N/A   Overcast
4:15 PM 59.0 °F 53.6 °F 82% 29.85 in 10.0 mi NW 3.5 mph - N/A   Overcast
4:35 PM 59.0 °F 53.6 °F 82% 29.85 in 10.0 mi NW 4.6 mph - N/A   Overcast
4:55 PM 59.0 °F 53.6 °F 82% 29.85 in 10.0 mi NW 4.6 mph - N/A   Overcast
5:15 PM 59.0 °F 53.6 °F 82% 29.85 in 10.0 mi Calm Calm - N/A   Overcast
5:35 PM 59.0 °F 53.6 °F 82% 29.84 in 10.0 mi WNW 4.6 mph - N/A   Overcast
5:55 PM 59.0 °F 53.6 °F 82% 29.84 in 10.0 mi WNW 3.5 mph - N/A   Overcast
6:15 PM 59.0 °F 53.6 °F 82% 29.85 in 10.0 mi NW 3.5 mph - N/A   Overcast
6:35 PM 59.0 °F 53.6 °F 82% 29.85 in 10.0 mi NW 3.5 mph - N/A   Overcast
6:55 PM 59.0 °F 53.6 °F 82% 29.85 in 10.0 mi WNW 4.6 mph - N/A   Overcast
7:15 PM 57.2 °F 53.6 °F 88% 29.85 in 10.0 mi West 4.6 mph - N/A   Overcast
7:35 PM 57.2 °F 53.6 °F 88% 29.85 in 10.0 mi West 3.5 mph - N/A   Mostly Cloudy
7:55 PM 57.2 °F 53.6 °F 88% 29.85 in 10.0 mi West 4.6 mph - N/A   Overcast
8:15 PM 57.2 °F 53.6 °F 88% 29.85 in 10.0 mi WNW 4.6 mph - N/A   Overcast
8:35 PM 55.4 °F 53.6 °F 94% 29.86 in 10.0 mi Calm Calm - N/A   Overcast
8:55 PM 55.4 °F 53.6 °F 94% 29.86 in 10.0 mi West 3.5 mph - N/A   Overcast
9:15 PM 55.4 °F 53.6 °F 94% 29.87 in 10.0 mi Calm Calm - N/A   Overcast
9:35 PM 55.4 °F 53.6 °F 94% 29.88 in 10.0 mi West 3.5 mph - N/A   Overcast
9:55 PM 55.4 °F 53.6 °F 94% 29.88 in 7.0 mi Calm Calm - N/A   Overcast
10:15 PM 55.4 °F 53.6 °F 94% 29.88 in 7.0 mi Calm Calm - N/A   Overcast
10:35 PM 55.4 °F 53.6 °F 94% 29.88 in 7.0 mi Calm Calm - N/A   Overcast
10:55 PM 55.4 °F 53.6 °F 94% 29.89 in 5.0 mi SW 4.6 mph - N/A   Overcast
11:15 PM 55.4 °F 53.6 °F 94% 29.89 in 5.0 mi SSW 4.6 mph - N/A   Overcast
11:35 PM 55.4 °F 53.6 °F 94% 29.88 in 5.0 mi SW 5.8 mph - N/A   Overcast
11:55 PM 53.6 °F 53.6 °F 100% 29.89 in 4.0 mi SW 4.6 mph - N/A   Overcast